Regional Weather Roundup
Issued by NWS

Home | Current Version | Previous Version | Graphics & Text | Print | Product List | Glossary Off
Versions: 1 2 3 4 5 6 7 8 9 10 11 12 13 14 15 16 17 18 19 20 21 22 23 24 25 26 27 28 29 30 31 32 33 34 35 36 37 38 39 40 41 42 43 44 45 46 47 48 49 50

000
ASUS43 KDMX 241703
RWRIA

WEATHER ROUNDUP FOR IOWA
NATIONAL WEATHER SERVICE DES MOINES IA
1200 PM CDT SUN JUL 24 2016

NOTE: "FAIR" INDICATES FEW OR NO CLOUDS BELOW 12,000 FEET WITH NO
SIGNIFICANT WEATHER AND/OR OBSTRUCTIONS TO VISIBILITY.

* - THESE STATIONS ARE NOT NWS STATIONS...THUS NOT UNDER NWS
QUALITY CONTROL.  THEY ALSO DO NOT REPORT WEATHER SUCH
AS PRECIPITATION OR FOG.

IAZ001>003-012>014-020>022-031>034-043>046-241800-
   NORTHWEST IOWA

CITY           SKY/WX    TMP DP  RH WIND       PRES   REMARKS
CARROLL *      MOSUNNY   82  68  61 N8G14     29.98R HX  85
CHEROKEE *     MOSUNNY   82  63  53 N10       29.99F HX  83
LE MARS *      SUNNY     84  61  45 N9        30.00F HX  84
SHELDON *      SUNNY     81  63  54 VRB5      29.99S HX  82
SIOUX CITY     CLOUDY    86  61  42 N10       30.00S HX  86
SPENCER        MOSUNNY   81  61  50 NW9       29.99R HX  82
STORM LAKE *   CLOUDY    81  64  57 N9        30.01R HX  82
$$

IAZ055>058-069>071-079>083-090>094-241800-
   SOUTHWEST IOWA

CITY           SKY/WX    TMP DP  RH WIND       PRES   REMARKS
ATLANTIC *     PTSUNNY   82  66  57 N15       29.98R HX  85
CLARINDA *       N/A     88  77  70 MISG      29.96S HX 100
COUNCIL BLFS * MOSUNNY   82  66  57 N12       29.99S HX  85
CRESTON *      PTSUNNY   84  77  79 N13       29.96R HX  94
HARLAN  *      CLOUDY    82  64  54 N9G18     30.02S HX  84
LAMONI         CLOUDY    87  78  74 NW8       29.92S HX 100
RED OAK *      MOSUNNY   86  68  54 N15       29.97R HX  89
SHENANDOAH *   MOSUNNY   86  77  74 N12       29.96S HX  97
$$

IAZ047>049-059>061-072>074-084-241800-
   CENTRAL IOWA

CITY           SKY/WX    TMP DP  RH WIND       PRES   REMARKS
AMES           SUNNY     86  71  60 N13       29.93R HX  91
ANKENY *         N/A    N/A N/A N/A MISG        N/A
BOONE *        SUNNY     84  66  54 N16G22    29.95R HX  86
CHARITON *       N/A    N/A N/A N/A MISG        N/A
DES MOINES     MOSUNNY   89  74  60 N12       29.92R HX  98
GRINNELL*      PTSUNNY   84  77  78 NW8       29.91S HX  94
KNOXVILLE *    CLOUDY    84  77  79 N10       29.90R HX  94
MARSHALLTOWN   SUNNY     85  76  74 N13       29.91R HX  94
NEWTON *       CLOUDY    86  79  79 NW14      29.91R HX  99
PELLA *        PTSUNNY   85  76  76 NW7       29.91R HX  94
PERRY *          N/A     83  70  64 N10G16    29.96R HX  87
$$

IAZ004>006-015-016-023>025-035-036-241800-
   NORTH CENTRAL IOWA

CITY           SKY/WX    TMP DP  RH WIND       PRES   REMARKS
ALGONA *       SUNNY     81  66  61 NW10      29.96S HX  83
ESTHERVILLE    SUNNY     78  62  57 NW13      29.98R HX  80
FORT DODGE *   SUNNY     82  66  57 N9        29.97S HX  85
MASON CITY     SUNNY     82  64  54 NW16      29.95S HX  83
FOREST CITY *    N/A     81  61  50 NW15G23   29.95R HX  81
IOWA FALLS *     N/A     83  67  57 N13       29.95R HX  86
$$

IAZ007>011-017>019-026>030-037>042-050>054-066-241800-
   NORTHEAST IOWA

CITY           SKY/WX    TMP DP  RH WIND       PRES   REMARKS
CEDAR RAPIDS   CLOUDY    86  81  85 NW10      29.88R HX 102
CHARLES CITY * SUNNY     82  70  65 NW13G20   29.93R HX  86
CLINTON *      CLOUDY    88  80  77 SW13G18   29.87S HX 104
DECORAH *      MOSUNNY   84  73  70 NW10      29.88R HX  91
DUBUQUE        PTSUNNY   86  78  77 W10       29.87S HX  98
MONTICELLO *   CLOUDY    86  79  79 W10       29.87R HX  99
OELWEIN *      PTSUNNY   84  79  84 W8        29.90R HX  96
WATERLOO       MOSUNNY   85  74  69 NW14      29.88R HX  92
$$

IAZ064-065-067-068-078-241800-
   EAST CENTRAL IOWA

CITY           SKY/WX    TMP DP  RH WIND       PRES   REMARKS
DAVENPORT      MOSUNNY   87  79  76 SW9       29.88R HX 101
IOWA CITY      CLOUDY    89  78  70 W12       29.88R HX 103
MT. PLEASANT * CLOUDY    91  78  66 W10       29.89S HX 105
MUSCATINE *    MOSUNNY   90  77  66 SW10      29.88R HX 102
QUAD CITIES    MOSUNNY   90  78  68 SW8       29.86R HX 104
$$

IAZ062-063-075>077-085>089-095>099-241800-
   SOUTHEAST IOWA

CITY           SKY/WX    TMP DP  RH WIND       PRES   REMARKS
BURLINGTON     CLOUDY    89  80  74 SW12      29.89R HX 106
FAIRFIELD *    CLOUDY    86  77  74 W6        29.89F HX  97
KEOKUK *       MOSUNNY   91  79  66 SW8G15    29.89S HX 107
CENTERVILLE *    N/A     84  75  74 W7        29.93R HX  92
OTTUMWA        CLOUDY    89  76  65 NW12      29.89S HX 100
WASHINGTON *   CLOUDY    86  79  79 W10       29.90S HX  99
$$

ABBREVIATIONS USED IN REMARKS
   TC - TEMPERATURES IN CELSIUS
  WCI - WIND CHILL INDEX
   HX - HEAT INDEX
  VSB - VISIBILITY
$$





USA.gov is the U.S. government's official web portal to all federal, state and local government web resources and services.